GW6324 Weather Reports


time (UTC)temp
F
wind
direction
speed
knots
gust
knots
rain 1hr
in
rain 24hr
in
rain mn
in
humidity
%
barometer
mb
20260503200030 65 267 3.5 10.4 0.00 0.00 0.00 41 1014.8
20260503194541 64 234 5.2 13.0 0.00 0.00 0.00 41 1015.0
20260503193032 64 231 4.3 10.4 0.00 0.00 0.00 37 1015.5
20260503191540 64 210 6.1 13.9 0.00 0.00 0.00 34 1015.9
20260503190040 64 281 5.2 13.0 0.00 0.00 0.00 41 1016.3
20260503184530 64 246 6.1 13.9 0.00 0.00 0.00 34 1016.2
20260503183032 63 252 5.2 12.2 0.00 0.00 0.00 38 1016.6
20260503181535 64 238 4.3 9.6 0.00 0.00 0.00 41 1016.6
20260503180037 63 294 2.6 9.6 0.00 0.00 0.00 37 1016.6
20260503174535 62 220 3.5 10.4 0.00 0.00 0.00 44 1016.9
20260503173034 61 235 3.5 10.4 0.00 0.00 0.00 43 1017.3
20260503171532 59 249 2.6 9.6 0.00 0.00 0.00 47 1017.7
20260503081536 36 0 0.0 1.7 0.00 0.00 0.00 80 1017.5
20260503071532 36 0 0.0 0.0 0.00 0.00 0.00 80 1017.3
20260503054551 37 0 0.0 0.0 0.00 0.00 0.00 76 1017.8
20260503053041 37 0 0.0 0.0 0.00 0.00 0.00 76 1017.8
20260503051534 37 204 0.0 1.7 0.00 0.00 0.00 77 1017.8
20260503050031 38 90 0.0 1.7 0.00 0.00 0.00 74 1017.8
20260503044532 38 0 0.0 0.0 0.00 0.00 0.00 74 1017.7
20260503043036 38 0 0.0 0.0 0.00 0.00 0.00 73 1017.7
20260503041530 39 0 0.0 0.0 0.00 0.00 0.00 72 1017.8
20260503040037 39 0 0.0 0.0 0.00 0.00 0.00 71 1018.0
20260503034535 40 0 0.0 1.7 0.00 0.00 0.00 69 1018.1
20260503033033 41 0 0.0 1.7 0.00 0.00 0.00 66 1018.1
20260503031537 43 0 0.0 1.7 0.00 0.00 0.00 64 1018.1
20260503030032 44 0 0.0 0.0 0.00 0.00 0.00 58 1018.0
20260503024535 45 0 0.0 1.7 0.00 0.00 0.00 57 1017.9
20260503023032 45 0 0.0 0.0 0.00 0.00 0.00 58 1017.9
20260503021534 45 90 0.0 1.7 0.00 0.00 0.00 54 1017.8
20260503020034 46 103 0.9 2.6 0.00 0.00 0.00 53 1017.6
20260503014530 46 85 0.9 2.6 0.00 0.00 0.00 53 1017.3
20260503013030 46 85 1.7 2.6 0.00 0.00 0.00 52 1017.2
20260503011534 47 90 1.7 3.5 0.00 0.00 0.00 51 1017.1
20260503010037 47 77 2.6 3.5 0.00 0.00 0.00 50 1017.0
20260503004534 48 77 1.7 6.1 0.00 0.00 0.00 48 1016.9
20260503003030 49 85 1.7 5.2 0.00 0.00 0.00 47 1016.9
20260503001531 50 96 1.7 5.2 0.00 0.00 0.00 46 1016.5
20260503000035 50 94 2.6 7.8 0.00 0.00 0.00 43 1016.3
20260502234547 51 85 3.5 8.7 0.00 0.00 0.00 42 1016.2
20260502233034 52 90 1.7 7.0 0.00 0.00 0.00 41 1016.1
20260502231534 52 73 2.6 8.7 0.00 0.00 0.00 42 1016.1
20260502230031 53 114 3.5 9.6 0.00 0.00 0.00 40 1016.0
20260502224530 54 34 2.6 9.6 0.00 0.00 0.00 39 1015.9
20260502223030 53 77 2.6 9.6 0.00 0.00 0.00 39 1015.9
20260502221535 55 65 2.6 10.4 0.00 0.00 0.00 36 1016.0
20260502220035 54 121 3.5 11.3 0.00 0.00 0.00 38 1015.9
20260502214540 53 258 0.9 7.8 0.00 0.00 0.00 42 1015.8
20260502213033 53 283 2.6 9.6 0.00 0.00 0.00 39 1015.9
20260502211538 55 259 2.6 8.7 0.00 0.00 0.00 40 1015.7
20260502210032 54 252 1.7 7.8 0.00 0.00 0.00 38 1015.7
20260502204534 56 117 1.7 10.4 0.00 0.00 0.00 38 1015.8
20260502203032 57 262 2.6 10.4 0.00 0.00 0.00 35 1015.6
20260502201532 56 250 3.5 11.3 0.00 0.00 0.00 38 1015.7